User: anonymous   Login
Location: Asheville, NC
(35.6000°N, 82.5500°W)
Time: 03:17:45
(UTC-04:00)
Language:

Gurwin Techsat 1B - Orbit

View from above orbital plane
View from above orbital plane
View from above satellite
View from above satellite

Ground track
Ground track

The orbit data is extracted from the following two-line orbital elements,

1 25397U 98043D   18110.82197439  .00000004  00000-0  20694-4 0  9993
2 25397  98.6456  52.2235 0001563 140.9360 219.1932 14.23643761 27567
Epoch (UTC): 20 April 2018 19:43:38
Eccentricity: 0.0001563
inclination: 98.6456°
perigee height: 812 km
apogee height: 814 km
right ascension of ascending node: 52.2235°
argument of perigee: 140.9360°
revolutions per day: 14.23643761
mean anomaly at epoch: 219.1932°
orbit number at epoch: 2756

The dashed part of the orbit path shows where the satellite is in the earth's shadow,  

DLR